Regional Weather Roundup
Issued by NWS Albany, NY

Home | Current Version | Previous Version | Text Only | Print | Product List | Glossary On
Versions: 1 2 3 4 5 6 7 8 9 10 11 12 13 14 15 16 17 18 19 20 21 22 23 24 25 26 27 28 29 30 31 32 33 34 35 36 37 38 39 40 41 42 43 44 45 46 47 48 49 50
000
ASUS41 KALY 020810
RWRALY

NEW YORK STATE HOURLY WEATHER ROUNDUP
NATIONAL WEATHER SERVICE ALBANY NY
400 AM EDT SUN AUG 02 2015

NOTE: "FAIR" INDICATES FEW OR NO CLOUDS BELOW 12,000 FEET WITH NO
SIGNIFICANT WEATHER AND/OR NO OBSTRUCTIONS TO VISIBILITY.

NYZ032-033-038>043-046>054-057>066-NYZ062>081-020900-
EAST


CITY           SKY/WX    TMP DP  RH WIND       PRES   REMARKS
ALBANY         CLEAR     60  54  80 CALM      29.87R
GLENS FALLS    CLEAR     55  51  86 CALM      29.85S
POUGHKEEPSIE   CLEAR     60  57  89 CALM      29.87S
MONTGOMERY     CLEAR     59  57  93 SW3       29.89S
WHITE PLAINS   CLEAR     66  58  75 NW3       29.87F
ISLIP          CLEAR     67  59  75 CALM      29.85S
NEW YORK CITY  PTCLDY    76  57  51 NW6       29.86S
CENTRAL PARK   CLEAR     74  55  51 CALM      29.90S
$$

NYZ005>009-017-018-044>046-055-056-020900-
CENTRAL


CITY           SKY/WX    TMP DP  RH WIND       PRES   REMARKS
FULTON         CLEAR     61  57  87 S3        29.85S
SYRACUSE       CLEAR     62  58  86 E3        29.85S
ROME           CLEAR     55  53  93 CALM      29.88R
ELMIRA         CLEAR     52  52 100 CALM      29.90S FOG
BINGHAMTON     CLEAR     59  53  80 SW6       29.92R
MONTICELLO     CLEAR     54  54 100 CALM      29.94S
$$

NYZ026>034-041>043-020900-
NORTH


CITY           SKY/WX    TMP DP  RH WIND       PRES   REMARKS
WATERTOWN      CLEAR     62  58  86 S6        29.82F
FORT DRUM      NOT AVBL
MASSENA        CLEAR     58  56  93 SW7       29.80S
SARANAC LAKE   CLEAR     50  49  96 CALM      29.85S
PLATTSBURGH    MOCLDY    58  56  93 CALM      29.80S
$$

NYZ001>004-010>016-019>021-020900-
WEST


CITY           SKY/WX    TMP DP  RH WIND       PRES   REMARKS
NIAGARA FALLS  CLEAR     61  58  90 CALM      29.84S
BUFFALO        PTCLDY    63  57  81 S6        29.86S
DUNKIRK        PTCLDY    67  56  67 S13       29.87S
JAMESTOWN      CLEAR     61  52  72 SW7       29.93S
WELLSVILLE     CLEAR     61  50  67 SW8       29.96S
ROCHESTER      CLEAR     61  58  90 SW6       29.86S
PENN YAN       CLEAR     64  55  72 S9        29.89S
$$

             KEY
       WCI = WIND CHILL INDEX
       VSB = VISIBILITY
       HX  = HEAT INDEX
$$


USA.gov is the U.S. government's official web portal to all federal, state and local government web resources and services.